When you browse on this site, cookies collect data to enhance your experience and personalize the content and advertising you see.
Visit our Privacy Policy to learn more. By continuing to use the site, you agree to this use of cookies and data.
  • In Austria
  • List of Countries
  • For 7 days
  • Water Temperature
  • Weather Map
  • News
  • Weather Widgets
  • user-avatar
    Login

    Hourly Weather Zastavne

    Today, 27 February, Thursday

    Time Temperature Precipitation Wind Pressure Humidity
    00:00 +2°C° 0 mm 5 mps 730 mmHg 81%
    01:00 +3°C° 0 mm 4 mps 730 mmHg 79%
    02:00 +1°C° 0 mm 4 mps 730 mmHg 78%
    03:00 +1°C° 0 mm 4 mps 731 mmHg 78%
    04:00 0°C° 0 mm 4 mps 731 mmHg 79%
    05:00 0°C° 0 mm 4 mps 731 mmHg 79%
    06:00 0°C° 0 mm 5 mps 731 mmHg 80%
    07:00 0°C° 0 mm 5 mps 732 mmHg 81%
    08:00 0°C° 0 mm 5 mps 732 mmHg 82%
    09:00 0°C° 0 mm 5 mps 732 mmHg 78%
    10:00 +1°C° 0 mm 5 mps 733 mmHg 75%
    11:00 +1°C° 0 mm 5 mps 733 mmHg 71%
    12:00 +2°C° 0.1 mm 5 mps 733 mmHg 69%
    13:00 +2°C° 0.1 mm 5 mps 733 mmHg 68%
    14:00 +2°C° 0.1 mm 5 mps 733 mmHg 66%
    15:00 +2°C° 0.1 mm 5 mps 733 mmHg 66%
    16:00 +3°C° 0.1 mm 4 mps 733 mmHg 66%
    17:00 +3°C° 0.1 mm 4 mps 733 mmHg 67%
    18:00 +2°C° 0 mm 3 mps 733 mmHg 71%
    19:00 +1°C° 0 mm 3 mps 734 mmHg 75%
    20:00 +1°C° 0 mm 2 mps 734 mmHg 80%
    21:00 +1°C° 0 mm 2 mps 734 mmHg 81%
    22:00 +1°C° 0 mm 2 mps 733 mmHg 82%
    23:00 -1°C° 0 mm 2 mps 733 mmHg 83%

    Tomorrow, 28 February, Friday

    Time Temperature Precipitation Wind Pressure Humidity
    00:00 -1°C° 0 mm 2 mps 733 mmHg 83%
    01:00 -1°C° 0 mm 2 mps 733 mmHg 82%
    02:00 -1°C° 0 mm 2 mps 733 mmHg 82%
    03:00 -1°C° 0 mm 2 mps 733 mmHg 82%
    04:00 -1°C° 0 mm 2 mps 733 mmHg 82%
    05:00 -1°C° 0 mm 2 mps 733 mmHg 81%
    06:00 +1°C° 0 mm 2 mps 733 mmHg 81%
    07:00 +1°C° 0 mm 2 mps 733 mmHg 80%
    08:00 +1°C° 0 mm 2 mps 733 mmHg 80%
    09:00 +2°C° 0 mm 2 mps 734 mmHg 76%
    10:00 +4°C° 0 mm 1 mps 734 mmHg 72%
    11:00 +4°C° 0 mm 1 mps 734 mmHg 69%
    12:00 +4°C° 0.2 mm 1 mps 735 mmHg 76%
    13:00 +4°C° 0.2 mm 1 mps 735 mmHg 84%
    14:00 +3°C° 0.2 mm 1 mps 736 mmHg 92%
    15:00 +3°C° 0.7 mm 1 mps 736 mmHg 92%
    16:00 +2°C° 0.7 mm 2 mps 737 mmHg 92%
    17:00 +2°C° 0.7 mm 2 mps 737 mmHg 93%
    18:00 +2°C° 0.1 mm 2 mps 738 mmHg 90%
    19:00 +1°C° 0.1 mm 2 mps 739 mmHg 86%
    20:00 0°C° 0.1 mm 3 mps 739 mmHg 83%
    21:00 0°C° 0 mm 3 mps 740 mmHg 84%
    22:00 -1°C° 0 mm 3 mps 740 mmHg 86%
    23:00 -1°C° 0 mm 3 mps 741 mmHg 87%

    Day after tomorrow, 29 February, Saturday

    Time Temperature Precipitation Wind Pressure Humidity
    00:00 -1°C° 0 mm 3 mps 741 mmHg 89%
    01:00 -1°C° 0 mm 3 mps 742 mmHg 90%
    02:00 -2°C° 0 mm 3 mps 742 mmHg 91%
    03:00 -2°C° 0 mm 3 mps 742 mmHg 92%
    04:00 -2°C° 0 mm 3 mps 742 mmHg 92%
    05:00 -2°C° 0 mm 3 mps 742 mmHg 93%
    06:00 -2°C° 0 mm 3 mps 742 mmHg 92%
    07:00 -3°C° 0 mm 4 mps 742 mmHg 92%
    08:00 -3°C° 0 mm 4 mps 743 mmHg 91%
    09:00 -1°C° 0 mm 4 mps 743 mmHg 86%
    10:00 0°C° 0 mm 4 mps 742 mmHg 82%
    11:00 +1°C° 0 mm 4 mps 742 mmHg 77%
    12:00 +3°C° 0 mm 4 mps 742 mmHg 72%
    13:00 +4°C° 0 mm 4 mps 742 mmHg 68%
    14:00 +4°C° 0 mm 4 mps 741 mmHg 63%
    15:00 +4°C° 0 mm 4 mps 741 mmHg 65%
    16:00 +4°C° 0 mm 3 mps 741 mmHg 66%
    17:00 +4°C° 0 mm 3 mps 740 mmHg 67%
    18:00 +3°C° 0 mm 3 mps 740 mmHg 70%
    19:00 +1°C° 0 mm 4 mps 740 mmHg 72%
    20:00 0°C° 0 mm 4 mps 740 mmHg 75%
    21:00 0°C° 0 mm 5 mps 740 mmHg 73%
    22:00 0°C° 0 mm 5 mps 740 mmHg 72%
    23:00 0°C° 0 mm 5 mps 740 mmHg 70%

    1 March, Sunday

    Time Temperature Precipitation Wind Pressure Humidity
    00:00 0°C° 0 mm 5 mps 739 mmHg 69%
    01:00 -1°C° 0 mm 6 mps 739 mmHg 69%
    02:00 -1°C° 0 mm 6 mps 739 mmHg 68%
    03:00 -1°C° 0 mm 6 mps 739 mmHg 68%
    04:00 -1°C° 0 mm 6 mps 738 mmHg 67%
    05:00 -1°C° 0 mm 6 mps 738 mmHg 67%
    06:00 -1°C° 0 mm 6 mps 738 mmHg 65%
    07:00 -1°C° 0 mm 6 mps 738 mmHg 64%
    08:00 -1°C° 0 mm 6 mps 738 mmHg 63%
    09:00 +1°C° 0 mm 6 mps 738 mmHg 60%
    10:00 +3°C° 0 mm 7 mps 738 mmHg 58%
    11:00 +4°C° 0 mm 7 mps 737 mmHg 55%
    12:00 +3°C° 0.2 mm 7 mps 737 mmHg 66%
    13:00 +3°C° 0.2 mm 7 mps 737 mmHg 77%
    14:00 +2°C° 0.2 mm 7 mps 737 mmHg 88%
    15:00 +2°C° 0 mm 6 mps 737 mmHg 85%
    16:00 +3°C° 0 mm 5 mps 737 mmHg 83%
    17:00 +4°C° 0 mm 4 mps 737 mmHg 81%
    18:00 +3°C° 0 mm 4 mps 737 mmHg 83%
    19:00 +3°C° 0 mm 4 mps 737 mmHg 84%
    20:00 +2°C° 0 mm 3 mps 737 mmHg 86%
    21:00 +2°C° 0 mm 3 mps 737 mmHg 87%
    22:00 +2°C° 0 mm 3 mps 737 mmHg 87%
    23:00 +2°C° 0 mm 3 mps 737 mmHg 88%

    2 March, Monday

    Time Temperature Precipitation Wind Pressure Humidity
    00:00 +2°C° 0 mm 3 mps 736 mmHg 89%
    01:00 +3°C° 0 mm 3 mps 736 mmHg 90%
    02:00 +3°C° 0 mm 3 mps 736 mmHg 91%
    03:00 +3°C° 0 mm 3 mps 736 mmHg 90%
    04:00 +3°C° 0 mm 3 mps 735 mmHg 90%
    05:00 +3°C° 0 mm 3 mps 735 mmHg 90%
    06:00 +4°C° 0.1 mm 4 mps 734 mmHg 89%
    07:00 +4°C° 0.1 mm 4 mps 734 mmHg 89%
    08:00 +4°C° 0.1 mm 4 mps 734 mmHg 88%
    09:00 +5°C° 0 mm 4 mps 734 mmHg 86%
    10:00 +5°C° 0 mm 4 mps 733 mmHg 83%
    11:00 +6°C° 0 mm 4 mps 733 mmHg 81%
    12:00 +6°C° 0 mm 4 mps 732 mmHg 78%
    13:00 +6°C° 0 mm 4 mps 732 mmHg 76%
    14:00 +6°C° 0 mm 4 mps 731 mmHg 74%
    15:00 +6°C° 0.3 mm 4 mps 731 mmHg 77%
    16:00 +6°C° 0.3 mm 4 mps 730 mmHg 80%
    17:00 +5°C° 0.3 mm 4 mps 730 mmHg 84%
    18:00 +5°C° 1 mm 3 mps 730 mmHg 88%
    19:00 +5°C° 1 mm 3 mps 730 mmHg 91%
    20:00 +4°C° 1 mm 3 mps 729 mmHg 95%
    21:00 +5°C° 0.2 mm 3 mps 730 mmHg 95%
    22:00 +5°C° 0.2 mm 4 mps 730 mmHg 95%
    23:00 +5°C° 0.2 mm 4 mps 730 mmHg 94%

    3 March, Tuesday

    Time Temperature Precipitation Wind Pressure Humidity
    00:00 +5°C° 0.1 mm 5 mps 731 mmHg 93%
    01:00 +4°C° 0.1 mm 6 mps 731 mmHg 91%
    02:00 +4°C° 0.1 mm 7 mps 732 mmHg 89%
    03:00 +3°C° 0 mm 7 mps 733 mmHg 88%
    04:00 +3°C° 0 mm 7 mps 733 mmHg 88%
    05:00 +3°C° 0 mm 7 mps 734 mmHg 87%
    06:00 +2°C° 0 mm 6 mps 735 mmHg 88%
    07:00 +2°C° 0 mm 5 mps 736 mmHg 88%
    08:00 +3°C° 0 mm 4 mps 736 mmHg 88%
    09:00 +4°C° 0 mm 4 mps 737 mmHg 82%
    10:00 +5°C° 0 mm 3 mps 738 mmHg 75%
    11:00 +7°C° 0 mm 3 mps 738 mmHg 68%
    12:00 +8°C° 0 mm 3 mps 738 mmHg 63%
    13:00 +8°C° 0 mm 2 mps 739 mmHg 57%
    14:00 +9°C° 0 mm 2 mps 739 mmHg 52%
    15:00 +10°C° 0 mm 1 mps 739 mmHg 54%
    16:00 +10°C° 0 mm 1 mps 739 mmHg 56%
    17:00 +10°C° 0 mm 1 mps 738 mmHg 58%
    18:00 +8°C° 0 mm 2 mps 738 mmHg 62%
    19:00 +7°C° 0 mm 2 mps 739 mmHg 65%
    20:00 +5°C° 0 mm 3 mps 739 mmHg 68%
    21:00 +5°C° 0 mm 3 mps 739 mmHg 69%
    22:00 +5°C° 0 mm 4 mps 738 mmHg 69%
    23:00 +5°C° 0 mm 4 mps 738 mmHg 69%
    Show more